Zurück zum Katalog

NOAA 16 DEB

AktivSSO
NORAD 41354·DEBRIS·🇺🇸 United States

Gestartet Sep 21, 2000 von Vandenberg Space Force Base

Loading…

Nächste Überflüge (nächste 24 Stunden)

TLE

AktuellSource: Space-Track

Epoche: Sep 14, 2026, 08:42 UTC

1 41354U 00055HX  26257.36290800  .00001701  00000-0  76067-3 0  9995
2 41354  98.6544 309.2881 0022001 176.1602 183.9749 14.23794707548455

Verfolge NOAA 16 DEB in Echtzeit mit AllMySat

Download on the App Store